Wind_Speed
14 13 13 12 11 10 9 8 8 8 8 7 7 7 7 7 8 9 9 8 8 8 8 7 6 6 5 5 6 6 5 5 5 4 4 3 3 3 4 4 4 4
15 14 13 12 12 12 11 9 8 8 9 9 8 7 7 8 9 10 10 9 8 8 8 7 7 7 6 5 6 5 4 5 4 2 5 4 3 3 4 4 4 4
15 15 14 13 12 12 12 10 10 9 9 9 9 8 8 8 9 9 10 9 8 7 8 7 7 6 6 6 5 4 4 4 3 4 7 6 3 3 4 4 4 4
16 15 14 13 12 11 11 11 11 10 9 9 9 9 8 8 8 9 9 9 9 9 8 8 7 6 7 6 4 3 5 5 3 4 6 5 4 4 4 4 4 4
15 15 14 14 13 12 12 12 12 11 10 9 9 9 9 9 9 9 9 9 9 9 9 8 7 7 7 6 4 4 5 4 5 5 5 4 4 3 3 5 6 5
15 16 15 14 14 13 13 12 12 11 10 10 10 9 10 10 10 9 9 9 9 9 9 8 8 8 8 7 6 5 5 5 6 6 6 5 4 4 4 5 6 6
15 16 16 15 14 14 14 13 12 12 11 11 11 10 10 10 10 10 10 10 9 9 10 9 9 9 9 9 8 6 7 7 7 7 7 5 5 6 6 6 7 8
15 15 15 16 15 15 15 14 13 13 13 12 12 12 12 11 11 10 11 11 11 11 10 10 12 12 10 9 9 8 8 8 7 8 7 6 7 7 7 7 8 9
15 15 15 16 16 16 15 15 15 14 14 14 13 13 12 12 12 11 12 12 11 12 12 12 13 13 10 10 11 10 9 8 8 8 7 7 8 7 7 7 8 9
15 15 16 16 16 16 16 16 16 15 15 14 14 14 13 13 13 12 12 13 13 12 13 13 13 12 11 11 12 11 10 9 9 9 9 8 8 8 8 8 8 9
16 16 16 16 16 16 16 17 16 16 16 15 14 14 14 13 13 13 13 14 14 13 13 13 12 12 11 11 11 11 10 9 10 10 10 9 9 9 9 9 10 10
17 17 16 16 17 16 16 16 17 17 17 16 15 15 15 14 14 14 14 14 14 13 13 13 12 12 12 12 12 11 11 10 11 11 10 10 10 10 10 10 10 10
18 18 17 16 16 16 15 15 16 17 16 16 16 15 15 15 15 14 14 15 15 14 14 13 14 14 13 13 13 12 12 12 11 11 11 10 10 10 10 11 11 11
18 18 18 18 17 17 17 15 15 16 16 16 16 16 16 16 16 15 15 15 15 15 14 14 15 15 15 15 14 13 13 12 12 12 11 11 11 11 11 12 12 12
17 16 18 20 21 20 21 19 16 15 16 16 17 17 16 17 16 16 16 15 15 15 15 15 15 15 16 16 15 14 14 13 13 13 12 12 12 12 12 12 13 13
20 19 18 21 24 23 22 21 18 16 16 16 17 17 17 17 16 17 17 16 16 16 15 16 16 16 16 16 16 15 13 12 13 13 12 12 12 13 13 13 14 14
22 23 22 20 21 22 20 20 20 18 17 17 17 17 18 17 17 17 18 17 17 16 16 16 16 16 16 18 18 18 16 13 12 12 12 12 13 14 14 14 15 15
23 24 24 21 20 21 21 20 21 21 20 21 19 18 18 19 19 18 18 18 18 17 17 17 16 16 17 19 20 20 20 18 16 14 14 14 14 14 14 15 15 16
24 24 24 22 21 21 21 21 21 21 21 22 21 19 19 20 21 20 20 21 20 19 18 17 17 17 18 19 21 22 22 21 19 16 15 15 15 14 14 14 14 15
21 22 22 23 23 22 21 20 20 20 21 22 21 21 21 22 22 22 22 22 23 22 19 17 18 19 19 20 21 22 24 23 21 18 17 16 16 16 15 15 15 15
19 20 21 21 23 25 24 22 22 22 22 22 23 23 22 21 21 21 21 20 20 20 18 18 20 21 20 21 21 23 25 25 23 21 19 18 18 17 16 16 16 16
19 19 20 20 20 21 23 24 26 27 26 25 25 24 22 21 20 18 18 19 20 20 18 18 22 24 23 22 23 24 26 26 23 21 21 21 20 19 18 17 18 18
18 18 20 19 18 19 23 25 27 28 26 25 25 24 23 21 19 18 19 20 21 21 19 18 19 21 22 24 25 26 26 25 22 19 20 21 19 18 18 20 22 21
12 14 16 15 15 19 23 24 26 26 26 25 24 24 23 20 18 20 22 22 21 21 21 20 20 20 21 23 25 25 25 23 22 21 21 21 19 18 18 19 19 18
4 5 6 6 9 12 15 18 21 22 23 24 24 25 24 21 20 22 23 22 23 24 22 23 24 24 25 25 25 25 24 23 24 25 24 22 22 22 20 18 17 16
6 5 5 4 4 5 7 11 14 15 16 18 20 22 23 22 22 23 22 21 22 23 21 21 23 24 25 26 25 24 23 22 23 24 22 21 21 20 18 18 19 17
Wind_Direction
191 190 190 195 195 192 198 204 204 202 201 202 208 212 205 203 202 192 196 218 218 211 215 215 213 216 218 228 220 214 229 213 201 236 257 243 243 264 266 262 275 268
191 192 192 193 197 198 197 197 199 205 205 201 203 210 207 206 207 201 203 217 219 215 221 217 215 219 210 220 231 218 228 227 194 238 271 254 237 259 263 261 273 270
192 194 196 194 199 204 201 200 201 204 208 205 204 204 204 207 209 208 210 213 209 213 226 223 218 223 218 223 234 222 235 243 195 211 255 257 239 244 260 260 261 275
197 197 200 200 203 205 202 205 208 207 207 210 210 205 200 201 203 208 213 213 207 205 219 229 219 217 232 238 235 224 247 262 236 229 247 251 249 239 240 251 244 253
203 200 200 202 204 205 204 207 211 210 207 209 211 206 203 200 197 204 215 218 215 208 214 227 220 213 230 241 228 218 240 253 243 257 264 244 247 251 237 248 244 239
206 205 203 202 202 205 206 208 211 211 209 211 210 207 211 211 205 204 210 215 217 212 213 219 219 214 221 236 235 217 219 231 231 251 269 251 234 237 234 250 255 247
205 208 207 206 205 207 208 209 211 210 210 212 212 210 212 216 216 210 210 212 209 211 214 213 218 216 211 227 238 223 216 227 233 241 247 239 233 233 231 240 253 253
202 205 208 208 209 211 211 211 211 211 211 211 212 215 213 214 220 218 216 214 208 212 212 208 223 227 213 216 230 234 230 223 235 255 251 235 239 242 238 240 250 258
202 204 207 209 210 213 214 213 213 212 213 212 212 216 216 215 219 218 219 217 210 214 212 209 226 234 218 213 224 235 239 223 225 250 253 243 246 250 250 250 253 261
205 206 208 210 211 213 214 214 215 213 214 215 214 216 217 218 219 216 218 221 215 215 219 217 225 232 223 220 227 236 240 233 227 233 238 240 243 244 248 251 253 258
206 207 210 213 213 215 216 216 216 215 215 215 216 219 219 219 220 217 216 222 221 218 223 224 225 229 227 224 231 239 241 240 239 238 240 243 244 246 248 249 252 256
208 208 211 214 215 215 217 218 216 217 218 217 217 221 222 220 222 222 219 221 223 219 222 228 228 228 230 228 228 233 237 239 241 242 244 245 245 249 254 255 256 258
214 213 212 213 216 216 215 219 219 217 218 219 219 220 223 223 222 223 223 223 226 224 223 228 232 230 230 232 229 229 233 235 236 239 242 245 246 248 250 253 255 257
216 218 217 213 213 214 214 215 218 219 218 220 222 221 222 225 224 224 224 224 226 228 225 227 233 233 231 232 232 229 230 234 237 239 240 242 247 249 250 253 255 257
212 214 219 218 214 213 213 211 211 216 218 218 221 223 223 225 226 225 225 225 225 227 227 227 231 233 233 234 234 232 234 237 238 240 243 244 247 251 253 255 256 258
212 206 211 219 221 219 217 213 210 211 216 217 219 221 223 224 225 225 225 226 226 227 229 230 231 234 238 239 237 235 236 236 235 237 241 243 245 249 252 255 257 259
220 215 210 212 216 219 221 220 216 213 214 216 217 219 221 222 223 225 225 226 228 229 230 232 234 237 241 244 244 242 239 237 238 242 245 245 247 251 254 257 260 261
222 222 220 216 215 218 221 223 223 221 219 217 218 219 220 221 222 224 225 227 229 231 233 236 240 241 242 245 249 252 252 249 247 248 251 252 254 256 258 259 261 263
221 224 227 229 230 228 225 225 226 227 226 224 223 222 223 225 225 224 226 227 229 233 237 242 247 248 246 247 250 254 258 259 254 249 249 253 253 253 255 258 261 265
223 226 229 232 232 230 227 227 227 227 227 227 227 226 226 229 230 229 231 232 233 236 238 244 250 250 246 246 248 253 257 260 259 253 250 253 255 256 257 258 260 263
223 226 228 230 232 233 232 232 232 231 230 228 229 227 227 231 233 232 232 235 236 236 237 241 244 243 242 241 243 249 255 260 263 258 253 253 253 255 257 259 260 262
221 220 222 224 228 232 235 235 234 235 234 233 234 231 227 230 232 230 227 226 226 226 228 233 234 234 236 238 239 244 250 257 262 262 259 257 256 257 259 259 257 254
223 220 223 225 226 232 236 236 236 237 237 237 237 236 232 231 233 236 232 225 224 225 228 235 236 232 234 238 241 244 248 253 257 256 255 256 257 258 252 247 247 246
223 228 232 232 231 235 239 239 239 240 240 239 240 242 243 241 240 244 241 234 233 233 233 239 242 239 237 238 241 245 250 253 252 250 250 254 260 261 252 245 247 250
194 224 227 220 221 228 232 234 238 240 240 242 244 246 249 248 242 242 241 238 238 238 236 239 245 247 247 245 246 250 253 253 252 253 254 255 259 261 255 251 254 255
84 102 114 133 182 213 221 224 231 236 236 239 241 240 242 242 236 231 230 228 232 237 234 232 238 245 248 250 252 254 253 251 250 253 254 249 250 255 251 246 249 248
Height
1593 1594 1596 1597 1598 1600 1601 1602 1603 1603 1604 1605 1605 1606 1606 1607 1607 1608 1609 1608 1608 1608 1609 1609 1609 1610 1610 1610 1611 1611 1612 1612 1612 1612 1612 1612 1612 1613 1613 1613 1613 1613
1592 1593 1595 1596 1597 1598 1599 1601 1602 1603 1603 1604 1605 1605 1605 1606 1606 1607 1608 1608 1608 1608 1608 1609 1609 1609 1610 1610 1611 1611 1611 1611 1611 1612 1612 1612 1612 1613 1613 1613 1613 1613
1591 1592 1594 1595 1596 1597 1599 1600 1601 1602 1602 1603 1603 1604 1605 1605 1605 1606 1606 1607 1608 1608 1608 1608 1608 1609 1609 1610 1610 1611 1611 1611 1611 1612 1612 1612 1612 1613 1613 1613 1613 1613
1589 1591 1593 1594 1596 1597 1598 1599 1599 1600 1601 1602 1602 1603 1604 1605 1605 1605 1605 1606 1607 1607 1608 1608 1608 1609 1609 1609 1610 1611 1611 1611 1611 1612 1612 1611 1612 1612 1613 1613 1613 1613
1588 1590 1591 1593 1595 1596 1597 1598 1598 1599 1600 1602 1602 1602 1603 1604 1604 1605 1605 1605 1606 1606 1607 1607 1607 1608 1609 1609 1610 1610 1611 1610 1611 1611 1611 1611 1612 1612 1613 1613 1612 1612
1587 1588 1590 1591 1593 1595 1596 1597 1598 1598 1600 1601 1601 1602 1603 1603 1603 1604 1605 1605 1605 1606 1606 1607 1607 1608 1608 1609 1609 1610 1610 1610 1610 1610 1611 1611 1611 1612 1613 1613 1612 1612
1586 1587 1589 1590 1592 1593 1594 1596 1597 1597 1599 1600 1600 1601 1602 1602 1603 1603 1604 1605 1605 1606 1606 1606 1607 1607 1608 1608 1608 1609 1609 1609 1609 1610 1611 1611 1611 1611 1612 1612 1611 1611
1585 1586 1587 1589 1590 1592 1593 1594 1595 1596 1597 1598 1599 1600 1601 1601 1602 1602 1603 1603 1604 1605 1606 1606 1606 1606 1607 1607 1608 1608 1608 1609 1609 1610 1610 1610 1610 1610 1610 1611 1611 1610
1584 1585 1586 1587 1589 1590 1591 1593 1594 1595 1596 1596 1598 1599 1599 1600 1601 1602 1602 1602 1603 1604 1604 1605 1605 1605 1606 1606 1607 1607 1607 1608 1609 1609 1609 1609 1609 1610 1610 1610 1610 1610
1583 1584 1585 1586 1587 1589 1590 1591 1592 1593 1594 1595 1596 1597 1598 1599 1600 1601 1601 1601 1602 1603 1603 1603 1604 1604 1605 1605 1606 1606 1606 1607 1607 1608 1608 1608 1609 1609 1609 1610 1610 1610
1581 1582 1584 1585 1586 1587 1588 1590 1591 1592 1592 1593 1595 1596 1597 1598 1599 1599 1600 1600 1600 1601 1602 1602 1603 1603 1604 1605 1605 1606 1606 1606 1606 1606 1607 1607 1607 1608 1608 1608 1609 1609
1579 1580 1582 1583 1584 1585 1587 1588 1589 1590 1591 1591 1593 1594 1595 1597 1597 1598 1598 1599 1599 1600 1601 1601 1602 1602 1603 1603 1605 1605 1605 1606 1606 1606 1606 1606 1606 1607 1607 1607 1608 1608
1577 1578 1579 1581 1582 1583 1585 1586 1587 1588 1589 1590 1592 1593 1594 1595 1596 1597 1597 1597 1598 1598 1599 1600 1600 1601 1602 1602 1603 1604 1604 1605 1605 1605 1605 1605 1606 1606 1606 1607 1607 1607
1575 1576 1577 1578 1580 1581 1582 1584 1585 1586 1588 1589 1590 1591 1592 1593 1594 1595 1596 1596 1597 1597 1598 1599 1599 1599 1600 1600 1601 1602 1603 1603 1604 1604 1604 1605 1605 1605 1605 1606 1606 1606
1573 1574 1574 1575 1576 1577 1579 1580 1582 1584 1585 1587 1588 1589 1591 1592 1593 1594 1594 1595 1595 1596 1596 1597 1598 1598 1599 1599 1600 1601 1601 1602 1603 1603 1603 1603 1604 1604 1604 1604 1605 1605
1570 1571 1571 1571 1572 1574 1575 1577 1580 1582 1583 1585 1586 1587 1589 1590 1591 1592 1593 1593 1594 1594 1595 1595 1596 1597 1597 1598 1599 1599 1600 1601 1601 1601 1602 1602 1602 1602 1603 1603 1603 1603
1567 1567 1567 1567 1568 1571 1573 1575 1577 1579 1580 1582 1583 1585 1586 1587 1588 1589 1590 1591 1592 1593 1594 1594 1595 1596 1596 1596 1597 1598 1599 1599 1600 1600 1600 1600 1600 1600 1601 1601 1601 1602
1565 1565 1565 1565 1566 1568 1570 1572 1574 1576 1577 1579 1580 1582 1583 1584 1586 1587 1588 1589 1590 1591 1592 1593 1593 1594 1595 1595 1595 1596 1597 1597 1598 1599 1599 1599 1599 1599 1599 1600 1600 1600
1562 1563 1564 1565 1566 1567 1569 1570 1572 1574 1575 1577 1578 1579 1581 1582 1583 1584 1586 1587 1588 1589 1590 1591 1592 1592 1593 1593 1593 1594 1594 1595 1596 1597 1597 1598 1598 1598 1598 1598 1598 1598
1560 1561 1563 1564 1565 1566 1568 1569 1570 1572 1573 1574 1575 1576 1577 1579 1580 1581 1583 1584 1585 1586 1588 1589 1589 1589 1590 1591 1591 1591 1592 1592 1594 1594 1595 1596 1596 1596 1596 1596 1596 1596
1559 1560 1561 1562 1564 1565 1566 1567 1568 1569 1570 1572 1572 1573 1575 1576 1577 1579 1580 1582 1583 1585 1586 1586 1585 1585 1586 1587 1588 1589 1590 1590 1592 1592 1593 1594 1594 1594 1594 1594 1594 1594
1556 1557 1558 1559 1560 1562 1564 1565 1565 1566 1568 1569 1570 1571 1572 1573 1575 1577 1578 1578 1579 1581 1582 1582 1582 1583 1584 1584 1585 1586 1587 1588 1589 1590 1591 1591 1592 1593 1593 1592 1591 1590
1554 1555 1555 1556 1558 1560 1561 1562 1562 1563 1565 1566 1568 1569 1570 1571 1573 1575 1575 1576 1577 1578 1579 1579 1580 1582 1582 1583 1583 1584 1584 1586 1587 1588 1588 1589 1590 1590 1589 1588 1587 1587
1553 1553 1554 1556 1557 1558 1558 1559 1560 1561 1562 1564 1565 1567 1568 1569 1572 1574 1575 1575 1576 1576 1577 1577 1578 1580 1581 1581 1581 1581 1582 1583 1584 1584 1585 1586 1587 1586 1585 1585 1585 1586
1553 1553 1554 1556 1556 1556 1555 1556 1557 1559 1560 1561 1563 1564 1566 1568 1570 1571 1572 1573 1573 1573 1573 1575 1576 1578 1579 1579 1579 1579 1579 1580 1580 1580 1581 1584 1584 1583 1584 1585 1584 1583
1554 1554 1555 1555 1556 1555 1555 1555 1556 1557 1558 1560 1561 1562 1563 1565 1566 1568 1568 1569 1569 1569 1570 1572 1574 1575 1575 1575 1576 1576 1576 1577 1577 1577 1578 1580 1580 1581 1582 1583 1581 1580